Time,TemperatureF,DewpointF,PressureIn,WindDirection,WindDirectionDegrees,WindSpeedMPH,WindSpeedGustMPH,Humidity,HourlyPrecipIn,Conditions,Clouds,dailyrainin,SoftwareType,DateUTC
2013-10-13 00:00:00,54.2,52.0,30.33,North,0,0.0,0.0,93,-99.99,,,-99.99,PWS SA v1.10,2013-10-13 04:00:00,
2013-10-13 00:02:00,54.2,52.0,30.33,North,0,0.0,0.0,93,-99.99,,,-99.99,PWS SA v1.10,2013-10-13 04:02:00,
2013-10-13 00:04:00,54.1,51.9,30.33,North,0,0.0,0.0,93,-99.99,,,-99.99,PWS SA v1.10,2013-10-13 04:04:00,
2013-10-13 00:08:00,54.1,52.1,30.33,North,0,0.0,0.0,94,-99.99,,,-99.99,PWS SA v1.10,2013-10-13 04:08:00,
2013-10-13 00:12:00,53.8,51.7,30.33,North,0,0.0,0.0,94,-99.99,,,-99.99,PWS SA v1.10,2013-10-13 04:12:00,
2013-10-13 00:18:00,53.7,51.7,30.33,North,0,0.0,0.0,94,-99.99,,,-99.99,PWS SA v1.10,2013-10-13 04:18:00,
2013-10-13 00:24:00,53.4,51.8,30.33,North,0,0.0,0.0,95,-99.99,,,-99.99,PWS SA v1.10,2013-10-13 04:24:00,
2013-10-13 00:30:00,53.3,51.8,30.34,North,0,0.0,0.0,95,-99.99,,,-99.99,PWS SA v1.10,2013-10-13 04:30:00,
2013-10-13 00:36:00,53.2,51.6,30.34,North,0,0.0,0.0,95,-99.99,,,-99.99,PWS SA v1.10,2013-10-13 04:36:00,
2013-10-13 00:38:00,53.0,51.3,30.34,North,0,0.0,0.0,95,-99.99,,,-99.99,PWS SA v1.10,2013-10-13 04:38:00,
2013-10-13 00:44:00,52.9,51.1,30.34,North,0,0.0,0.0,95,-99.99,,,-99.99,PWS SA v1.10,2013-10-13 04:44:00,
2013-10-13 00:50:00,52.9,51.2,30.34,North,0,0.0,0.0,95,-99.99,,,-99.99,PWS SA v1.10,2013-10-13 04:50:00,
2013-10-13 00:56:00,52.9,51.2,30.34,North,0,0.0,0.0,95,-99.99,,,-99.99,PWS SA v1.10,2013-10-13 04:56:00,
2013-10-13 01:02:00,52.9,51.2,30.34,North,0,0.0,0.0,95,-99.99,,,-99.99,PWS SA v1.10,2013-10-13 05:02:00,
2013-10-13 01:08:00,53.2,51.3,30.34,North,0,0.0,0.0,95,-99.99,,,-99.99,PWS SA v1.10,2013-10-13 05:08:00,
2013-10-13 01:14:00,53.3,51.6,30.34,North,0,0.0,0.0,95,-99.99,,,-99.99,PWS SA v1.10,2013-10-13 05:14:00,
2013-10-13 01:20:00,53.3,51.7,30.35,North,0,0.0,0.0,95,-99.99,,,-99.99,PWS SA v1.10,2013-10-13 05:20:00,
2013-10-13 01:26:00,53.3,51.5,30.35,North,0,0.0,0.0,94,-99.99,,,-99.99,PWS SA v1.10,2013-10-13 05:26:00,
2013-10-13 01:32:00,53.3,51.2,30.34,North,0,0.0,1.0,94,-99.99,,,-99.99,PWS SA v1.10,2013-10-13 05:32:00,
2013-10-13 01:38:00,53.3,51.5,30.34,North,0,0.0,1.0,94,-99.99,,,-99.99,PWS SA v1.10,2013-10-13 05:38:00,
2013-10-13 01:44:00,53.4,51.4,30.34,North,0,0.0,0.0,94,-99.99,,,-99.99,PWS SA v1.10,2013-10-13 05:44:00,
2013-10-13 01:50:00,53.4,51.4,30.34,North,0,0.0,0.0,94,-99.99,,,-99.99,PWS SA v1.10,2013-10-13 05:50:00,
2013-10-13 01:56:00,53.4,51.4,30.34,North,0,0.0,0.0,94,-99.99,,,-99.99,PWS SA v1.10,2013-10-13 05:56:00,
2013-10-13 02:02:00,53.4,51.5,30.34,North,0,0.0,0.0,94,-99.99,,,-99.99,PWS SA v1.10,2013-10-13 06:02:00,
2013-10-13 02:08:00,53.4,51.5,30.34,North,0,0.0,0.0,94,-99.99,,,-99.99,PWS SA v1.10,2013-10-13 06:08:00,
2013-10-13 02:14:00,53.4,51.5,30.34,North,0,0.0,0.0,94,-99.99,,,-99.99,PWS SA v1.10,2013-10-13 06:14:00,
2013-10-13 02:20:00,53.3,51.4,30.34,North,0,0.0,0.0,93,-99.99,,,-99.99,PWS SA v1.10,2013-10-13 06:20:00,
2013-10-13 02:26:00,53.3,50.6,30.34,North,0,0.0,0.0,92,-99.99,,,-99.99,PWS SA v1.10,2013-10-13 06:26:00,
2013-10-13 02:32:00,53.2,50.7,30.33,North,0,0.0,0.0,92,-99.99,,,-99.99,PWS SA v1.10,2013-10-13 06:32:00,
2013-10-13 02:38:00,53.2,50.6,30.33,North,0,0.0,0.0,92,-99.99,,,-99.99,PWS SA v1.10,2013-10-13 06:38:00,
2013-10-13 02:44:00,52.9,50.7,30.33,North,0,0.0,0.0,93,-99.99,,,-99.99,PWS SA v1.10,2013-10-13 06:44:00,
2013-10-13 02:50:00,52.7,50.8,30.33,North,0,0.0,0.0,94,-99.99,,,-99.99,PWS SA v1.10,2013-10-13 06:50:00,
2013-10-13 02:56:00,52.5,50.5,30.33,North,0,0.0,0.0,94,-99.99,,,-99.99,PWS SA v1.10,2013-10-13 06:56:00,
2013-10-13 03:02:00,52.4,50.7,30.33,North,0,0.0,0.0,94,-99.99,,,-99.99,PWS SA v1.10,2013-10-13 07:02:00,
2013-10-13 03:08:00,52.2,50.2,30.33,North,0,0.0,0.0,94,-99.99,,,-99.99,PWS SA v1.10,2013-10-13 07:08:00,
2013-10-13 03:14:00,51.8,50.2,30.33,North,0,0.0,0.0,94,-99.99,,,-99.99,PWS SA v1.10,2013-10-13 07:14:00,
2013-10-13 03:20:00,51.6,50.2,30.33,North,0,0.0,1.0,95,-99.99,,,-99.99,PWS SA v1.10,2013-10-13 07:20:00,
2013-10-13 03:26:00,51.2,49.9,30.33,North,0,0.0,1.0,95,-99.99,,,-99.99,PWS SA v1.10,2013-10-13 07:26:00,
2013-10-13 03:32:00,51.0,49.7,30.33,North,0,0.0,1.0,96,-99.99,,,-99.99,PWS SA v1.10,2013-10-13 07:32:00,
2013-10-13 03:38:00,50.7,49.6,30.32,North,0,0.0,0.0,97,-99.99,,,-99.99,PWS SA v1.10,2013-10-13 07:38:00,
2013-10-13 03:44:00,50.6,49.7,30.33,North,0,0.0,0.0,97,-99.99,,,-99.99,PWS SA v1.10,2013-10-13 07:44:00,
2013-10-13 03:50:00,50.5,49.6,30.33,North,0,0.0,0.0,97,-99.99,,,-99.99,PWS SA v1.10,2013-10-13 07:50:00,
2013-10-13 03:56:00,50.3,49.5,30.33,North,0,0.0,0.0,97,-99.99,,,-99.99,PWS SA v1.10,2013-10-13 07:56:00,
2013-10-13 04:02:00,50.1,49.4,30.33,North,0,0.0,0.0,98,-99.99,,,-99.99,PWS SA v1.10,2013-10-13 08:02:00,
2013-10-13 04:08:00,50.0,49.1,30.33,North,0,0.0,0.0,98,-99.99,,,-99.99,PWS SA v1.10,2013-10-13 08:08:00,
2013-10-13 04:14:00,49.8,49.4,30.33,North,0,0.0,0.0,98,-99.99,,,-99.99,PWS SA v1.10,2013-10-13 08:14:00,
2013-10-13 04:20:00,50.0,49.4,30.33,North,0,0.0,0.0,98,-99.99,,,-99.99,PWS SA v1.10,2013-10-13 08:20:00,
2013-10-13 04:26:00,49.8,49.1,30.33,North,0,0.0,0.0,98,-99.99,,,-99.99,PWS SA v1.10,2013-10-13 08:26:00,
2013-10-13 04:32:00,49.6,49.0,30.33,North,0,0.0,0.0,98,-99.99,,,-99.99,PWS SA v1.10,2013-10-13 08:32:00,
2013-10-13 04:38:00,49.6,49.0,30.33,North,0,0.0,0.0,98,-99.99,,,-99.99,PWS SA v1.10,2013-10-13 08:38:00,
2013-10-13 04:44:00,49.3,49.0,30.33,North,0,0.0,0.0,98,-99.99,,,-99.99,PWS SA v1.10,2013-10-13 08:44:00,
2013-10-13 04:50:00,49.2,48.4,30.32,North,0,0.0,0.0,98,-99.99,,,-99.99,PWS SA v1.10,2013-10-13 08:50:00,
2013-10-13 04:56:00,49.0,48.6,30.34,North,0,0.0,0.0,99,-99.99,,,-99.99,PWS SA v1.10,2013-10-13 08:56:00,
2013-10-13 05:02:00,48.8,48.6,30.33,North,0,0.0,0.0,99,-99.99,,,-99.99,PWS SA v1.10,2013-10-13 09:02:00,
2013-10-13 05:08:00,48.8,48.3,30.34,North,0,0.0,0.0,99,-99.99,,,-99.99,PWS SA v1.10,2013-10-13 09:08:00,
2013-10-13 05:14:00,48.5,48.0,30.34,North,0,0.0,0.0,99,-99.99,,,-99.99,PWS SA v1.10,2013-10-13 09:14:00,
2013-10-13 05:20:00,48.6,48.3,30.34,North,0,0.0,0.0,99,-99.99,,,-99.99,PWS SA v1.10,2013-10-13 09:20:00,
2013-10-13 05:26:00,48.7,48.4,30.34,North,0,0.0,0.0,99,-99.99,,,-99.99,PWS SA v1.10,2013-10-13 09:26:00,
2013-10-13 05:32:00,48.7,48.3,30.34,North,0,0.0,0.0,99,-99.99,,,-99.99,PWS SA v1.10,2013-10-13 09:32:00,
2013-10-13 05:38:00,48.4,48.1,30.33,North,0,0.0,0.0,99,-99.99,,,-99.99,PWS SA v1.10,2013-10-13 09:38:00,
2013-10-13 05:44:00,48.4,48.0,30.34,North,0,0.0,0.0,99,-99.99,,,-99.99,PWS SA v1.10,2013-10-13 09:44:00,
2013-10-13 05:50:00,48.3,47.8,30.34,North,0,0.0,0.0,99,-99.99,,,-99.99,PWS SA v1.10,2013-10-13 09:50:00,
2013-10-13 05:56:00,48.2,47.9,30.34,North,0,0.0,0.0,99,-99.99,,,-99.99,PWS SA v1.10,2013-10-13 09:56:00,
2013-10-13 06:02:00,48.1,47.7,30.35,North,0,0.0,0.0,99,-99.99,,,-99.99,PWS SA v1.10,2013-10-13 10:02:00,
2013-10-13 06:08:00,48.0,47.7,30.35,North,0,0.0,0.0,99,-99.99,,,-99.99,PWS SA v1.10,2013-10-13 10:08:00,
2013-10-13 06:14:00,48.0,47.8,30.35,North,0,0.0,0.0,99,-99.99,,,-99.99,PWS SA v1.10,2013-10-13 10:14:00,
2013-10-13 06:20:00,47.9,47.7,30.35,North,0,0.0,0.0,99,-99.99,,,-99.99,PWS SA v1.10,2013-10-13 10:20:00,
2013-10-13 06:26:00,47.9,47.7,30.35,North,0,0.0,0.0,99,-99.99,,,-99.99,PWS SA v1.10,2013-10-13 10:26:00,
2013-10-13 06:32:00,47.9,47.7,30.35,North,0,0.0,0.0,99,-99.99,,,-99.99,PWS SA v1.10,2013-10-13 10:32:00,
2013-10-13 06:38:00,47.9,47.7,30.35,North,0,0.0,0.0,99,-99.99,,,-99.99,PWS SA v1.10,2013-10-13 10:38:00,
2013-10-13 06:44:00,47.6,47.2,30.35,North,0,0.0,0.0,99,-99.99,,,-99.99,PWS SA v1.10,2013-10-13 10:44:00,
2013-10-13 06:50:00,47.6,47.4,30.35,North,0,0.0,0.0,100,-99.99,,,-99.99,PWS SA v1.10,2013-10-13 10:50:00,
2013-10-13 06:56:00,47.4,47.2,30.35,North,0,0.0,0.0,100,-99.99,,,-99.99,PWS SA v1.10,2013-10-13 10:56:00,
2013-10-13 07:02:00,47.3,47.0,30.36,North,0,0.0,0.0,100,-99.99,,,-99.99,PWS SA v1.10,2013-10-13 11:02:00,
2013-10-13 07:08:00,47.3,47.0,30.36,North,0,0.0,0.0,100,-99.99,,,-99.99,PWS SA v1.10,2013-10-13 11:08:00,
2013-10-13 07:14:00,47.1,47.0,30.36,North,0,0.0,0.0,100,-99.99,,,-99.99,PWS SA v1.10,2013-10-13 11:14:00,
2013-10-13 07:20:00,47.1,46.9,30.37,North,0,0.0,0.0,100,-99.99,,,-99.99,PWS SA v1.10,2013-10-13 11:20:00,
2013-10-13 07:26:00,47.0,46.9,30.37,North,0,0.0,0.0,100,-99.99,,,-99.99,PWS SA v1.10,2013-10-13 11:26:00,
2013-10-13 07:32:00,47.0,47.0,30.37,North,0,0.0,0.0,100,-99.99,,,-99.99,PWS SA v1.10,2013-10-13 11:32:00,
2013-10-13 07:38:00,47.0,47.0,30.36,North,0,0.0,0.0,100,-99.99,,,-99.99,PWS SA v1.10,2013-10-13 11:38:00,
2013-10-13 07:44:00,47.2,47.0,30.37,North,0,0.0,0.0,100,-99.99,,,-99.99,PWS SA v1.10,2013-10-13 11:44:00,
2013-10-13 07:50:00,47.3,47.0,30.37,North,0,0.0,0.0,100,-99.99,,,-99.99,PWS SA v1.10,2013-10-13 11:50:00,
2013-10-13 07:56:00,47.4,47.4,30.38,North,0,0.0,0.0,100,-99.99,,,-99.99,PWS SA v1.10,2013-10-13 11:56:00,
2013-10-13 08:02:00,47.6,47.4,30.38,North,0,0.0,0.0,100,-99.99,,,-99.99,PWS SA v1.10,2013-10-13 12:02:00,
2013-10-13 08:08:00,47.8,47.6,30.38,North,0,0.0,0.0,100,-99.99,,,-99.99,PWS SA v1.10,2013-10-13 12:08:00,
2013-10-13 08:14:00,48.0,47.9,30.38,North,0,0.0,0.0,100,-99.99,,,-99.99,PWS SA v1.10,2013-10-13 12:14:00,
2013-10-13 08:20:00,48.4,48.3,30.38,North,0,0.0,0.0,100,-99.99,,,-99.99,PWS SA v1.10,2013-10-13 12:20:00,
2013-10-13 08:26:00,48.4,48.3,30.38,North,0,0.0,0.0,100,-99.99,,,-99.99,PWS SA v1.10,2013-10-13 12:26:00,
2013-10-13 08:32:00,48.7,48.5,30.38,North,0,0.0,0.0,100,-99.99,,,-99.99,PWS SA v1.10,2013-10-13 12:32:00,
2013-10-13 08:38:00,48.8,48.4,30.38,North,0,0.0,0.0,100,-99.99,,,-99.99,PWS SA v1.10,2013-10-13 12:38:00,
2013-10-13 08:44:00,49.2,48.9,30.38,North,0,0.0,0.0,100,-99.99,,,-99.99,PWS SA v1.10,2013-10-13 12:44:00,
2013-10-13 08:50:00,49.4,49.1,30.38,North,0,0.0,0.0,100,-99.99,,,-99.99,PWS SA v1.10,2013-10-13 12:50:00,
2013-10-13 08:56:00,49.6,49.4,30.38,North,0,0.0,0.0,100,-99.99,,,-99.99,PWS SA v1.10,2013-10-13 12:56:00,
2013-10-13 09:02:00,50.2,49.7,30.39,North,0,0.0,0.0,99,-99.99,,,-99.99,PWS SA v1.10,2013-10-13 13:02:00,
2013-10-13 09:08:00,50.8,50.0,30.39,North,0,0.0,3.0,98,-99.99,,,-99.99,PWS SA v1.10,2013-10-13 13:08:00,
2013-10-13 09:14:00,51.4,50.4,30.39,North,0,0.0,3.0,98,-99.99,,,-99.99,PWS SA v1.10,2013-10-13 13:14:00,
2013-10-13 09:20:00,52.0,50.5,30.39,ENE,73,1.7,3.0,96,-99.99,,,-99.99,PWS SA v1.10,2013-10-13 13:20:00,
2013-10-13 09:26:00,52.4,50.4,30.39,North,0,0.0,1.0,94,-99.99,,,-99.99,PWS SA v1.10,2013-10-13 13:26:00,
2013-10-13 09:32:00,52.8,50.6,30.39,North,0,0.0,8.0,93,-99.99,,,-99.99,PWS SA v1.10,2013-10-13 13:32:00,
2013-10-13 09:38:00,53.3,50.8,30.40,North,0,0.0,8.0,92,-99.99,,,-99.99,PWS SA v1.10,2013-10-13 13:38:00,
2013-10-13 09:44:00,53.7,50.5,30.40,NE,52,1.7,8.0,90,-99.99,,,-99.99,PWS SA v1.10,2013-10-13 13:44:00,
2013-10-13 09:50:00,54.0,50.5,30.40,North,0,0.0,3.0,89,-99.99,,,-99.99,PWS SA v1.10,2013-10-13 13:50:00,
2013-10-13 09:56:00,53.9,50.7,30.40,North,0,0.0,3.0,89,-99.99,,,-99.99,PWS SA v1.10,2013-10-13 13:56:00,
2013-10-13 10:02:00,54.4,51.4,30.40,North,0,0.0,3.0,90,-99.99,,,-99.99,PWS SA v1.10,2013-10-13 14:02:00,
2013-10-13 10:08:00,54.7,51.5,30.40,North,0,0.0,3.0,90,-99.99,,,-99.99,PWS SA v1.10,2013-10-13 14:08:00,
2013-10-13 10:14:00,55.8,51.7,30.39,North,0,0.0,1.0,86,-99.99,,,-99.99,PWS SA v1.10,2013-10-13 14:14:00,
2013-10-13 10:20:00,57.2,51.9,30.40,North,0,0.0,1.0,83,-99.99,,,-99.99,PWS SA v1.10,2013-10-13 14:20:00,
2013-10-13 10:26:00,57.3,50.0,30.39,North,0,0.0,3.0,77,-99.99,,,-99.99,PWS SA v1.10,2013-10-13 14:26:00,
2013-10-13 10:32:00,57.1,50.2,30.40,North,0,0.0,3.0,79,-99.99,,,-99.99,PWS SA v1.10,2013-10-13 14:32:00,
2013-10-13 10:38:00,57.1,50.5,30.39,NNE,31,1.7,3.0,80,-99.99,,,-99.99,PWS SA v1.10,2013-10-13 14:38:00,
2013-10-13 10:44:00,57.8,50.6,30.40,North,0,0.0,3.0,78,-99.99,,,-99.99,PWS SA v1.10,2013-10-13 14:44:00,
2013-10-13 10:50:00,57.5,49.8,30.39,NNE,18,3.4,3.4,76,-99.99,,,-99.99,PWS SA v1.10,2013-10-13 14:50:00,
2013-10-13 10:56:00,57.9,49.9,30.39,North,0,0.0,3.0,76,-99.99,,,-99.99,PWS SA v1.10,2013-10-13 14:56:00,
2013-10-13 11:02:00,58.0,50.3,30.39,East,87,3.4,3.4,76,-99.99,,,-99.99,PWS SA v1.10,2013-10-13 15:02:00,
2013-10-13 11:08:00,58.3,49.7,30.39,NNE,31,1.7,3.0,74,-99.99,,,-99.99,PWS SA v1.10,2013-10-13 15:08:00,
2013-10-13 11:14:00,58.2,49.6,30.39,North,0,0.0,3.0,74,-99.99,,,-99.99,PWS SA v1.10,2013-10-13 15:14:00,
2013-10-13 11:20:00,58.4,50.0,30.39,North,0,0.0,1.0,75,-99.99,,,-99.99,PWS SA v1.10,2013-10-13 15:20:00,
2013-10-13 11:26:00,58.0,49.8,30.40,North,0,0.0,8.0,75,-99.99,,,-99.99,PWS SA v1.10,2013-10-13 15:26:00,
2013-10-13 11:32:00,58.0,50.1,30.40,North,0,0.0,8.0,76,-99.99,,,-99.99,PWS SA v1.10,2013-10-13 15:32:00,
2013-10-13 11:38:00,57.9,49.4,30.40,North,0,0.0,8.0,74,-99.99,,,-99.99,PWS SA v1.10,2013-10-13 15:38:00,
2013-10-13 11:44:00,58.0,50.5,30.40,SSW,201,1.7,3.0,77,-99.99,,,-99.99,PWS SA v1.10,2013-10-13 15:44:00,
2013-10-13 11:50:00,58.1,50.9,30.40,North,0,0.0,3.0,78,-99.99,,,-99.99,PWS SA v1.10,2013-10-13 15:50:00,
2013-10-13 11:56:00,58.2,50.0,30.39,North,0,0.0,3.0,76,-99.99,,,-99.99,PWS SA v1.10,2013-10-13 15:56:00,
2013-10-13 12:02:00,58.6,50.4,30.39,North,0,0.0,1.0,75,-99.99,,,-99.99,PWS SA v1.10,2013-10-13 16:02:00,
2013-10-13 12:08:00,58.5,49.7,30.39,North,0,0.0,3.0,73,-99.99,,,-99.99,PWS SA v1.10,2013-10-13 16:08:00,
2013-10-13 12:14:00,58.4,50.7,30.39,North,0,0.0,3.0,77,-99.99,,,-99.99,PWS SA v1.10,2013-10-13 16:14:00,
2013-10-13 12:20:00,58.6,50.5,30.39,North,0,0.0,0.0,77,-99.99,,,-99.99,PWS SA v1.10,2013-10-13 16:20:00,
2013-10-13 12:26:00,58.8,50.9,30.39,North,0,0.0,1.0,77,-99.99,,,-99.99,PWS SA v1.10,2013-10-13 16:26:00,
2013-10-13 12:32:00,59.0,50.0,30.38,North,0,0.0,5.0,73,-99.99,,,-99.99,PWS SA v1.10,2013-10-13 16:32:00,
2013-10-13 12:38:00,59.1,50.7,30.38,North,0,0.0,5.0,75,-99.99,,,-99.99,PWS SA v1.10,2013-10-13 16:38:00,
2013-10-13 12:44:00,59.2,49.7,30.38,NE,34,5.1,5.1,72,-99.99,,,-99.99,PWS SA v1.10,2013-10-13 16:44:00,
2013-10-13 12:50:00,59.2,49.1,30.38,NE,47,5.1,5.1,70,-99.99,,,-99.99,PWS SA v1.10,2013-10-13 16:50:00,
2013-10-13 12:56:00,59.1,49.8,30.38,North,0,0.0,5.0,72,-99.99,,,-99.99,PWS SA v1.10,2013-10-13 16:56:00,
2013-10-13 13:02:00,59.3,49.3,30.38,North,0,0.0,5.0,70,-99.99,,,-99.99,PWS SA v1.10,2013-10-13 17:02:00,
2013-10-13 13:08:00,59.3,50.0,30.37,North,0,0.0,3.0,73,-99.99,,,-99.99,PWS SA v1.10,2013-10-13 17:08:00,
2013-10-13 13:14:00,59.3,50.2,30.37,NNE,18,5.1,5.1,73,-99.99,,,-99.99,PWS SA v1.10,2013-10-13 17:14:00,
2013-10-13 13:20:00,59.2,49.9,30.37,North,0,0.0,6.0,72,-99.99,,,-99.99,PWS SA v1.10,2013-10-13 17:20:00,
2013-10-13 13:26:00,59.2,49.2,30.37,North,0,0.0,6.0,70,-99.99,,,-99.99,PWS SA v1.10,2013-10-13 17:26:00,
2013-10-13 13:32:00,59.0,49.8,30.37,North,0,0.0,5.0,73,-99.99,,,-99.99,PWS SA v1.10,2013-10-13 17:32:00,
2013-10-13 13:38:00,59.0,50.1,30.38,North,0,0.0,5.0,74,-99.99,,,-99.99,PWS SA v1.10,2013-10-13 17:38:00,
2013-10-13 13:44:00,59.1,50.7,30.37,North,0,0.0,5.0,75,-99.99,,,-99.99,PWS SA v1.10,2013-10-13 17:44:00,
2013-10-13 13:50:00,59.1,50.7,30.37,North,0,0.0,5.0,75,-99.99,,,-99.99,PWS SA v1.10,2013-10-13 17:50:00,
2013-10-13 13:56:00,59.0,49.3,30.37,North,0,0.0,1.0,72,-99.99,,,-99.99,PWS SA v1.10,2013-10-13 17:56:00,
2013-10-13 14:02:00,59.0,50.6,30.37,SE,136,1.7,1.7,75,-99.99,,,-99.99,PWS SA v1.10,2013-10-13 18:02:00,
2013-10-13 14:08:00,59.1,50.1,30.37,North,0,0.0,3.0,73,-99.99,,,-99.99,PWS SA v1.10,2013-10-13 18:08:00,
2013-10-13 14:14:00,59.1,50.0,30.37,North,0,0.0,3.0,73,-99.99,,,-99.99,PWS SA v1.10,2013-10-13 18:14:00,
2013-10-13 14:20:00,59.1,49.8,30.37,North,0,0.0,3.0,73,-99.99,,,-99.99,PWS SA v1.10,2013-10-13 18:20:00,
2013-10-13 14:26:00,59.1,50.7,30.37,North,0,0.0,3.0,75,-99.99,,,-99.99,PWS SA v1.10,2013-10-13 18:26:00,
2013-10-13 14:32:00,59.2,50.1,30.37,North,0,0.0,3.0,73,-99.99,,,-99.99,PWS SA v1.10,2013-10-13 18:32:00,
2013-10-13 14:38:00,59.4,50.5,30.37,North,0,0.0,3.0,74,-99.99,,,-99.99,PWS SA v1.10,2013-10-13 18:38:00,
2013-10-13 14:44:00,59.5,50.2,30.37,North,0,0.0,5.0,72,-99.99,,,-99.99,PWS SA v1.10,2013-10-13 18:44:00,
2013-10-13 14:50:00,59.7,51.1,30.36,North,0,0.0,5.0,74,-99.99,,,-99.99,PWS SA v1.10,2013-10-13 18:50:00,
2013-10-13 14:56:00,59.6,49.4,30.36,North,0,0.0,1.0,70,-99.99,,,-99.99,PWS SA v1.10,2013-10-13 18:56:00,
2013-10-13 15:02:00,59.3,48.6,30.36,North,0,0.0,5.0,69,-99.99,,,-99.99,PWS SA v1.10,2013-10-13 19:02:00,
2013-10-13 15:08:00,59.3,49.0,30.36,North,0,0.0,5.0,70,-99.99,,,-99.99,PWS SA v1.10,2013-10-13 19:08:00,
2013-10-13 15:14:00,59.3,48.6,30.36,North,0,0.0,5.0,69,-99.99,,,-99.99,PWS SA v1.10,2013-10-13 19:14:00,
2013-10-13 15:20:00,59.3,48.4,30.36,North,0,0.0,3.0,69,-99.99,,,-99.99,PWS SA v1.10,2013-10-13 19:20:00,
2013-10-13 15:26:00,59.3,48.9,30.36,ESE,102,5.1,5.1,70,-99.99,,,-99.99,PWS SA v1.10,2013-10-13 19:26:00,
2013-10-13 15:32:00,59.3,49.5,30.36,North,0,0.0,5.0,71,-99.99,,,-99.99,PWS SA v1.10,2013-10-13 19:32:00,
2013-10-13 15:38:00,59.0,49.9,30.37,North,0,0.0,5.0,73,-99.99,,,-99.99,PWS SA v1.10,2013-10-13 19:38:00,
2013-10-13 15:44:00,58.7,48.2,30.36,North,0,0.0,0.0,69,-99.99,,,-99.99,PWS SA v1.10,2013-10-13 19:44:00,
2013-10-13 15:50:00,58.8,48.5,30.36,North,0,0.0,3.0,70,-99.99,,,-99.99,PWS SA v1.10,2013-10-13 19:50:00,
2013-10-13 15:56:00,59.1,49.1,30.36,North,0,0.0,3.0,71,-99.99,,,-99.99,PWS SA v1.10,2013-10-13 19:56:00,
2013-10-13 16:02:00,59.2,50.0,30.36,North,0,0.0,3.0,73,-99.99,,,-99.99,PWS SA v1.10,2013-10-13 20:02:00,
2013-10-13 16:08:00,58.6,49.4,30.35,North,0,0.0,1.0,73,-99.99,,,-99.99,PWS SA v1.10,2013-10-13 20:08:00,
2013-10-13 16:14:00,58.2,48.9,30.35,North,0,0.0,1.0,72,-99.99,,,-99.99,PWS SA v1.10,2013-10-13 20:14:00,
2013-10-13 16:20:00,58.6,49.6,30.35,North,0,0.0,1.0,73,-99.99,,,-99.99,PWS SA v1.10,2013-10-13 20:20:00,
2013-10-13 16:26:00,58.0,49.2,30.36,North,0,0.0,0.0,74,-99.99,,,-99.99,PWS SA v1.10,2013-10-13 20:26:00,
2013-10-13 16:32:00,57.8,48.7,30.35,North,0,0.0,1.0,73,-99.99,,,-99.99,PWS SA v1.10,2013-10-13 20:32:00,
2013-10-13 16:38:00,57.5,48.8,30.35,North,0,0.0,1.0,74,-99.99,,,-99.99,PWS SA v1.10,2013-10-13 20:38:00,
2013-10-13 16:44:00,57.2,47.9,30.35,North,0,0.0,1.0,73,-99.99,,,-99.99,PWS SA v1.10,2013-10-13 20:44:00,
2013-10-13 16:50:00,57.1,47.9,30.35,North,0,0.0,5.0,72,-99.99,,,-99.99,PWS SA v1.10,2013-10-13 20:50:00,
2013-10-13 16:56:00,56.8,48.7,30.35,North,0,0.0,5.0,75,-99.99,,,-99.99,PWS SA v1.10,2013-10-13 20:56:00,
2013-10-13 17:02:00,56.4,49.4,30.35,North,0,0.0,1.0,78,-99.99,,,-99.99,PWS SA v1.10,2013-10-13 21:02:00,
2013-10-13 17:08:00,56.1,48.5,30.35,North,0,0.0,1.0,76,-99.99,,,-99.99,PWS SA v1.10,2013-10-13 21:08:00,
2013-10-13 17:14:00,55.9,48.3,30.35,North,358,1.7,1.7,77,-99.99,,,-99.99,PWS SA v1.10,2013-10-13 21:14:00,
2013-10-13 17:20:00,55.6,48.6,30.35,SE,129,1.7,1.7,79,-99.99,,,-99.99,PWS SA v1.10,2013-10-13 21:20:00,
2013-10-13 17:26:00,55.2,47.7,30.35,North,0,0.0,1.0,77,-99.99,,,-99.99,PWS SA v1.10,2013-10-13 21:26:00,
2013-10-13 17:32:00,54.8,48.0,30.35,North,0,0.0,1.0,79,-99.99,,,-99.99,PWS SA v1.10,2013-10-13 21:32:00,
2013-10-13 17:38:00,54.5,47.5,30.35,North,0,0.0,0.0,79,-99.99,,,-99.99,PWS SA v1.10,2013-10-13 21:38:00,
2013-10-13 17:44:00,54.2,47.8,30.35,North,0,0.0,0.0,81,-99.99,,,-99.99,PWS SA v1.10,2013-10-13 21:44:00,
2013-10-13 17:50:00,53.8,47.4,30.35,North,0,0.0,0.0,81,-99.99,,,-99.99,PWS SA v1.10,2013-10-13 21:50:00,
2013-10-13 17:56:00,53.4,47.5,30.35,North,0,0.0,0.0,82,-99.99,,,-99.99,PWS SA v1.10,2013-10-13 21:56:00,
2013-10-13 18:02:00,53.0,47.1,30.35,North,0,0.0,0.0,82,-99.99,,,-99.99,PWS SA v1.10,2013-10-13 22:02:00,
2013-10-13 18:08:00,52.6,47.6,30.35,North,0,0.0,0.0,85,-99.99,,,-99.99,PWS SA v1.10,2013-10-13 22:08:00,
2013-10-13 18:14:00,52.2,47.3,30.35,North,0,0.0,0.0,85,-99.99,,,-99.99,PWS SA v1.10,2013-10-13 22:14:00,
2013-10-13 18:20:00,51.9,47.2,30.35,North,0,0.0,0.0,87,-99.99,,,-99.99,PWS SA v1.10,2013-10-13 22:20:00,
2013-10-13 18:26:00,51.6,47.1,30.35,North,0,0.0,0.0,87,-99.99,,,-99.99,PWS SA v1.10,2013-10-13 22:26:00,
2013-10-13 18:32:00,51.2,47.2,30.35,North,0,0.0,0.0,88,-99.99,,,-99.99,PWS SA v1.10,2013-10-13 22:32:00,
2013-10-13 18:38:00,51.0,47.3,30.35,North,0,0.0,0.0,89,-99.99,,,-99.99,PWS SA v1.10,2013-10-13 22:38:00,
2013-10-13 18:44:00,50.8,47.2,30.35,North,0,0.0,0.0,90,-99.99,,,-99.99,PWS SA v1.10,2013-10-13 22:44:00,
2013-10-13 18:50:00,50.6,47.5,30.35,North,0,0.0,0.0,92,-99.99,,,-99.99,PWS SA v1.10,2013-10-13 22:50:00,
2013-10-13 18:56:00,50.0,47.2,30.35,North,0,0.0,0.0,91,-99.99,,,-99.99,PWS SA v1.10,2013-10-13 22:56:00,
2013-10-13 19:02:00,49.6,46.7,30.35,North,0,0.0,0.0,93,-99.99,,,-99.99,PWS SA v1.10,2013-10-13 23:02:00,
2013-10-13 19:08:00,49.4,46.9,30.35,North,0,0.0,0.0,93,-99.99,,,-99.99,PWS SA v1.10,2013-10-13 23:08:00,
2013-10-13 19:14:00,49.1,47.0,30.35,North,0,0.0,0.0,94,-99.99,,,-99.99,PWS SA v1.10,2013-10-13 23:14:00,
2013-10-13 19:20:00,49.0,46.9,30.35,North,0,0.0,0.0,94,-99.99,,,-99.99,PWS SA v1.10,2013-10-13 23:20:00,
2013-10-13 19:26:00,48.8,46.9,30.36,North,0,0.0,0.0,94,-99.99,,,-99.99,PWS SA v1.10,2013-10-13 23:26:00,
2013-10-13 19:32:00,48.5,46.6,30.35,North,0,0.0,0.0,95,-99.99,,,-99.99,PWS SA v1.10,2013-10-13 23:32:00,
2013-10-13 19:38:00,48.3,46.6,30.36,North,0,0.0,0.0,96,-99.99,,,-99.99,PWS SA v1.10,2013-10-13 23:38:00,
2013-10-13 19:44:00,48.0,46.6,30.35,North,0,0.0,0.0,96,-99.99,,,-99.99,PWS SA v1.10,2013-10-13 23:44:00,
2013-10-13 19:50:00,47.9,46.7,30.36,North,0,0.0,0.0,97,-99.99,,,-99.99,PWS SA v1.10,2013-10-13 23:50:00,
2013-10-13 19:56:00,47.8,46.6,30.35,North,0,0.0,0.0,97,-99.99,,,-99.99,PWS SA v1.10,2013-10-13 23:56:00,
2013-10-13 20:02:00,47.4,46.4,30.35,North,0,0.0,0.0,97,-99.99,,,-99.99,PWS SA v1.10,2013-10-14 00:02:00,
2013-10-13 20:08:00,47.3,46.3,30.36,North,0,0.0,0.0,98,-99.99,,,-99.99,PWS SA v1.10,2013-10-14 00:08:00,
2013-10-13 20:14:00,47.1,46.3,30.35,North,0,0.0,0.0,99,-99.99,,,-99.99,PWS SA v1.10,2013-10-14 00:14:00,
2013-10-13 20:20:00,47.1,46.3,30.36,North,0,0.0,0.0,98,-99.99,,,-99.99,PWS SA v1.10,2013-10-14 00:20:00,
2013-10-13 20:26:00,46.9,45.9,30.36,North,0,0.0,0.0,98,-99.99,,,-99.99,PWS SA v1.10,2013-10-14 00:26:00,
2013-10-13 20:32:00,46.7,46.2,30.36,North,0,0.0,0.0,99,-99.99,,,-99.99,PWS SA v1.10,2013-10-14 00:32:00,
2013-10-13 20:38:00,46.5,45.7,30.36,North,0,0.0,0.0,99,-99.99,,,-99.99,PWS SA v1.10,2013-10-14 00:38:00,
2013-10-13 20:44:00,46.3,45.6,30.36,North,0,0.0,0.0,99,-99.99,,,-99.99,PWS SA v1.10,2013-10-14 00:44:00,
2013-10-13 20:50:00,46.0,45.5,30.37,North,0,0.0,0.0,99,-99.99,,,-99.99,PWS SA v1.10,2013-10-14 00:50:00,
2013-10-13 20:56:00,46.0,45.5,30.37,North,0,0.0,0.0,99,-99.99,,,-99.99,PWS SA v1.10,2013-10-14 00:56:00,
2013-10-13 21:02:00,46.0,45.6,30.37,North,0,0.0,0.0,99,-99.99,,,-99.99,PWS SA v1.10,2013-10-14 01:02:00,
2013-10-13 21:08:00,46.1,45.5,30.37,North,0,0.0,0.0,99,-99.99,,,-99.99,PWS SA v1.10,2013-10-14 01:08:00,
2013-10-13 21:14:00,45.9,45.3,30.37,North,0,0.0,0.0,97,-99.99,,,-99.99,PWS SA v1.10,2013-10-14 01:14:00,
2013-10-13 21:20:00,45.7,45.0,30.37,North,0,0.0,0.0,98,-99.99,,,-99.99,PWS SA v1.10,2013-10-14 01:20:00,
2013-10-13 21:26:00,45.7,45.1,30.37,North,0,0.0,0.0,98,-99.99,,,-99.99,PWS SA v1.10,2013-10-14 01:26:00,
2013-10-13 21:32:00,45.6,45.0,30.37,North,0,0.0,0.0,98,-99.99,,,-99.99,PWS SA v1.10,2013-10-14 01:32:00,
2013-10-13 21:38:00,45.5,45.0,30.36,North,0,0.0,0.0,98,-99.99,,,-99.99,PWS SA v1.10,2013-10-14 01:38:00,
2013-10-13 21:44:00,45.5,44.8,30.37,North,0,0.0,0.0,98,-99.99,,,-99.99,PWS SA v1.10,2013-10-14 01:44:00,
2013-10-13 21:50:00,45.3,44.9,30.37,North,0,0.0,0.0,98,-99.99,,,-99.99,PWS SA v1.10,2013-10-14 01:50:00,
2013-10-13 21:56:00,45.2,44.8,30.37,North,0,0.0,0.0,98,-99.99,,,-99.99,PWS SA v1.10,2013-10-14 01:56:00,
2013-10-13 22:02:00,45.2,44.7,30.37,North,0,0.0,0.0,98,-99.99,,,-99.99,PWS SA v1.10,2013-10-14 02:02:00,
2013-10-13 22:08:00,45.2,44.6,30.37,North,0,0.0,0.0,98,-99.99,,,-99.99,PWS SA v1.10,2013-10-14 02:08:00,
2013-10-13 22:14:00,45.1,44.8,30.37,North,0,0.0,0.0,98,-99.99,,,-99.99,PWS SA v1.10,2013-10-14 02:14:00,
2013-10-13 22:20:00,45.0,44.5,30.37,North,0,0.0,0.0,98,-99.99,,,-99.99,PWS SA v1.10,2013-10-14 02:20:00,
2013-10-13 22:26:00,44.8,44.4,30.37,North,0,0.0,0.0,98,-99.99,,,-99.99,PWS SA v1.10,2013-10-14 02:26:00,
2013-10-13 22:32:00,44.6,44.0,30.37,North,0,0.0,0.0,98,-99.99,,,-99.99,PWS SA v1.10,2013-10-14 02:32:00,
2013-10-13 22:38:00,44.5,44.0,30.37,North,0,0.0,0.0,97,-99.99,,,-99.99,PWS SA v1.10,2013-10-14 02:38:00,
2013-10-13 22:44:00,44.5,43.8,30.37,North,0,0.0,0.0,97,-99.99,,,-99.99,PWS SA v1.10,2013-10-14 02:44:00,
2013-10-13 22:50:00,44.4,43.8,30.37,North,0,0.0,0.0,97,-99.99,,,-99.99,PWS SA v1.10,2013-10-14 02:50:00,
2013-10-13 22:56:00,44.1,43.7,30.37,North,0,0.0,0.0,98,-99.99,,,-99.99,PWS SA v1.10,2013-10-14 02:56:00,
2013-10-13 23:02:00,44.1,43.7,30.37,North,0,0.0,0.0,98,-99.99,,,-99.99,PWS SA v1.10,2013-10-14 03:02:00,
2013-10-13 23:08:00,44.0,43.6,30.37,North,0,0.0,0.0,97,-99.99,,,-99.99,PWS SA v1.10,2013-10-14 03:08:00,
2013-10-13 23:14:00,43.9,43.4,30.37,North,0,0.0,0.0,97,-99.99,,,-99.99,PWS SA v1.10,2013-10-14 03:14:00,
2013-10-13 23:20:00,43.8,43.2,30.37,North,0,0.0,0.0,97,-99.99,,,-99.99,PWS SA v1.10,2013-10-14 03:20:00,
2013-10-13 23:26:00,43.6,43.0,30.36,North,0,0.0,0.0,99,-99.99,,,-99.99,PWS SA v1.10,2013-10-14 03:26:00,
2013-10-13 23:32:00,43.6,43.4,30.37,North,0,0.0,0.0,98,-99.99,,,-99.99,PWS SA v1.10,2013-10-14 03:32:00,
2013-10-13 23:38:00,43.5,43.3,30.37,North,0,0.0,0.0,98,-99.99,,,-99.99,PWS SA v1.10,2013-10-14 03:38:00,
2013-10-13 23:44:00,43.3,42.8,30.37,North,0,0.0,0.0,97,-99.99,,,-99.99,PWS SA v1.10,2013-10-14 03:44:00,
2013-10-13 23:50:00,43.3,42.7,30.36,North,0,0.0,0.0,97,-99.99,,,-99.99,PWS SA v1.10,2013-10-14 03:50:00,
2013-10-13 23:56:00,43.2,42.6,30.37,North,0,0.0,0.0,97,-99.99,,,-99.99,PWS SA v1.10,2013-10-14 03:56:00,